TimeEEST,TemperatureF,Dew PointF,Humidity,Sea Level PressureIn,VisibilityMPH,Wind Direction,Wind SpeedMPH,Gust SpeedMPH,PrecipitationIn,Events,Conditions,WindDirDegrees,DateUTC
12:20 AM,59.0,57.2,94,30.06,6.2,NNE,5.8,-,N/A,,Mostly Cloudy,20,2012-10-23 21:20:00
12:50 AM,59.0,57.2,94,30.06,6.2,Variable,2.3,-,N/A,,Mostly Cloudy,0,2012-10-23 21:50:00
1:20 AM,60.8,57.2,88,30.04,6.2,SE,4.6,-,N/A,,Mostly Cloudy,130,2012-10-23 22:20:00
1:50 AM,60.8,57.2,88,30.04,6.2,SSE,8.1,-,N/A,Thunderstorm,Thunderstorm,150,2012-10-23 22:50:00
2:20 AM,60.8,55.4,82,30.06,6.2,SSE,5.8,-,N/A,Thunderstorm,Thunderstorm,160,2012-10-23 23:20:00
2:50 AM,60.8,57.2,88,30.06,6.2,West,1.2,-,N/A,Thunderstorm,Thunderstorm,280,2012-10-23 23:50:00
3:20 AM,59.0,57.2,94,30.06,6.2,NE,8.1,-,N/A,Thunderstorm,Mostly Cloudy,50,2012-10-24 00:20:00
3:50 AM,59.0,55.4,88,30.06,6.2,NNE,5.8,-,N/A,Thunderstorm,Mostly Cloudy,30,2012-10-24 00:50:00
4:20 AM,57.2,55.4,94,30.06,6.2,North,4.6,-,N/A,,Scattered Clouds,360,2012-10-24 01:20:00
4:50 AM,57.2,53.6,88,30.06,6.2,North,5.8,-,N/A,,Scattered Clouds,10,2012-10-24 01:50:00
5:20 AM,57.2,53.6,88,30.06,6.2,NNE,5.8,-,N/A,,Scattered Clouds,20,2012-10-24 02:20:00
5:50 AM,55.4,53.6,94,30.06,6.2,NNE,6.9,-,N/A,,Scattered Clouds,30,2012-10-24 02:50:00
6:20 AM,57.2,53.6,88,30.06,6.2,NNE,6.9,-,N/A,,Scattered Clouds,20,2012-10-24 03:20:00
6:50 AM,57.2,55.4,94,30.06,6.2,NE,4.6,-,N/A,,Mostly Cloudy,40,2012-10-24 03:50:00
7:20 AM,59.0,55.4,88,30.09,6.2,Variable,2.3,-,N/A,,Mostly Cloudy,0,2012-10-24 04:20:00
7:50 AM,59.0,55.4,88,30.09,6.2,North,4.6,-,N/A,,Mostly Cloudy,360,2012-10-24 04:50:00
8:20 AM,60.8,57.2,88,30.09,6.2,NNE,5.8,-,N/A,,Mostly Cloudy,30,2012-10-24 05:20:00
8:50 AM,62.6,57.2,82,30.09,6.2,North,5.8,-,N/A,,Mostly Cloudy,360,2012-10-24 05:50:00
9:20 AM,64.4,59.0,83,30.09,6.2,NNE,5.8,-,N/A,,Mostly Cloudy,20,2012-10-24 06:20:00
9:50 AM,64.4,57.2,77,30.09,6.2,North,5.8,-,N/A,,Mostly Cloudy,360,2012-10-24 06:50:00
10:20 AM,66.2,59.0,78,30.09,6.2,North,6.9,-,N/A,,Mostly Cloudy,360,2012-10-24 07:20:00
10:50 AM,68.0,57.2,68,30.09,6.2,North,4.6,-,N/A,,Scattered Clouds,360,2012-10-24 07:50:00
11:20 AM,68.0,57.2,68,30.09,6.2,North,4.6,-,N/A,,Scattered Clouds,10,2012-10-24 08:20:00
11:50 AM,69.8,57.2,64,30.09,6.2,NNE,6.9,-,N/A,,Mostly Cloudy,30,2012-10-24 08:50:00
12:20 PM,71.6,57.2,60,30.06,6.2,ENE,5.8,-,N/A,,Mostly Cloudy,70,2012-10-24 09:20:00
12:50 PM,69.8,57.2,64,30.06,6.2,Variable,3.5,-,N/A,Thunderstorm,Thunderstorm,0,2012-10-24 09:50:00
1:20 PM,64.4,53.6,68,30.06,6.2,North,12.7,-,N/A,Thunderstorm,Thunderstorm,10,2012-10-24 10:20:00
1:50 PM,64.4,55.4,73,30.06,6.2,North,12.7,-,N/A,Rain-Thunderstorm,Light Thunderstorms and Rain,10,2012-10-24 10:50:00
2:20 PM,64.4,57.2,77,30.06,6.2,NNE,11.5,-,N/A,Rain-Thunderstorm,Light Thunderstorms and Rain,30,2012-10-24 11:20:00
2:50 PM,66.2,59.0,78,30.06,6.2,NNE,13.8,-,N/A,Thunderstorm,Thunderstorm,30,2012-10-24 11:50:00
3:20 PM,66.2,57.2,73,30.06,6.2,NE,9.2,-,N/A,,Mostly Cloudy,40,2012-10-24 12:20:00
3:50 PM,66.2,57.2,73,30.06,6.2,ESE,3.5,-,N/A,Rain,Light Rain Showers,120,2012-10-24 12:50:00
4:20 PM,66.2,57.2,73,30.06,6.2,ENE,4.6,-,N/A,,Drizzle,60,2012-10-24 13:20:00
4:50 PM,66.2,55.4,68,30.06,6.2,East,6.9,-,N/A,,Mostly Cloudy,100,2012-10-24 13:50:00
5:20 PM,64.4,55.4,73,30.04,6.2,NE,4.6,-,N/A,,Mostly Cloudy,40,2012-10-24 14:20:00
5:50 PM,62.6,55.4,77,30.04,6.2,NNE,4.6,-,N/A,,Mostly Cloudy,20,2012-10-24 14:50:00
6:20 PM,62.6,57.2,82,30.04,6.2,North,5.8,-,N/A,,Mostly Cloudy,10,2012-10-24 15:20:00
6:50 PM,62.6,57.2,82,30.06,6.2,North,4.6,-,N/A,Rain,Light Rain Showers,360,2012-10-24 15:50:00
7:20 PM,62.6,59.0,88,30.06,4.3,North,8.1,-,N/A,Rain,Light Rain Showers,360,2012-10-24 16:20:00
7:50 PM,60.8,59.0,94,30.09,6.2,NNE,5.8,-,N/A,Rain,Light Rain Showers,20,2012-10-24 16:50:00
8:20 PM,60.8,59.0,94,30.06,6.2,NE,13.8,-,N/A,Rain,Light Rain Showers,50,2012-10-24 17:20:00
8:50 PM,60.8,57.2,88,30.06,6.2,North,9.2,-,N/A,,Mostly Cloudy,10,2012-10-24 17:50:00
9:20 PM,60.8,57.2,88,30.06,6.2,NNE,9.2,-,N/A,Rain,Light Rain Showers,20,2012-10-24 18:20:00
9:50 PM,60.8,57.2,88,30.06,6.2,ENE,6.9,-,N/A,Rain,Light Rain Showers,60,2012-10-24 18:50:00
10:20 PM,60.8,57.2,88,30.06,6.2,NNE,8.1,-,N/A,Rain,Light Rain Showers,30,2012-10-24 19:20:00
10:50 PM,60.8,55.4,82,30.06,6.2,ENE,5.8,-,N/A,Rain-Thunderstorm,Light Thunderstorms and Rain,70,2012-10-24 19:50:00
11:20 PM,60.8,57.2,88,30.09,6.2,West,6.9,-,N/A,Rain-Thunderstorm,Light Thunderstorms and Rain,260,2012-10-24 20:20:00
11:50 PM,60.8,57.2,88,30.09,6.2,Variable,2.3,-,N/A,Rain,Light Rain Showers,0,2012-10-24 20:50:00